TimeEST,TemperatureF,Dew PointF,Humidity,Sea Level PressureIn,VisibilityMPH,Wind Direction,Wind SpeedMPH,Gust SpeedMPH,PrecipitationIn,Events,Conditions,WindDirDegrees,DateUTC
12:52 AM,30.9,21.0,67,30.48,10.0,East,8.1,-,N/A,,Overcast,100,2013-02-08 05:52:00
1:52 AM,30.9,21.9,69,30.46,10.0,East,9.2,16.1,N/A,,Overcast,100,2013-02-08 06:52:00
2:52 AM,30.9,23.0,72,30.42,10.0,East,11.5,18.4,N/A,,Overcast,100,2013-02-08 07:52:00
3:52 AM,32.0,23.0,69,30.40,10.0,East,10.4,-,N/A,,Overcast,100,2013-02-08 08:52:00
4:52 AM,32.0,23.0,69,30.40,10.0,East,13.8,19.6,N/A,,Overcast,100,2013-02-08 09:52:00
5:52 AM,32.0,23.0,69,30.36,10.0,East,17.3,24.2,N/A,,Overcast,100,2013-02-08 10:52:00
6:52 AM,32.0,24.1,73,30.36,10.0,East,12.7,-,N/A,,Overcast,90,2013-02-08 11:52:00
7:52 AM,33.1,25.0,72,30.32,10.0,East,13.8,24.2,N/A,,Overcast,90,2013-02-08 12:52:00
8:52 AM,34.0,26.1,73,30.31,10.0,East,16.1,28.8,N/A,,Overcast,90,2013-02-08 13:52:00
9:52 AM,35.1,28.0,76,30.27,10.0,East,17.3,31.1,N/A,,Overcast,90,2013-02-08 14:52:00
10:52 AM,35.1,30.0,82,30.22,3.0,East,17.3,26.5,0.00,Snow,Light Snow,90,2013-02-08 15:52:00
11:00 AM,35.6,30.2,81,30.21,2.5,East,19.6,31.1,0.00,Snow,Light Snow,90,2013-02-08 16:00:00
11:13 AM,35.6,30.2,81,30.19,3.0,East,17.3,28.8,0.00,Snow,Light Snow,90,2013-02-08 16:13:00
11:52 AM,35.1,30.9,85,30.16,2.5,East,19.6,33.4,0.00,Snow,Light Snow,90,2013-02-08 16:52:00
12:08 PM,33.8,30.2,87,30.14,1.8,East,21.9,29.9,0.01,Snow,Light Snow,80,2013-02-08 17:08:00
12:52 PM,34.0,32.0,92,30.10,1.5,East,20.7,32.2,0.02,Snow,Light Snow,80,2013-02-08 17:52:00
1:11 PM,35.6,32.0,87,30.08,2.5,East,23.0,32.2,0.01,Snow,Light Snow,80,2013-02-08 18:11:00
1:52 PM,35.1,32.0,89,30.05,1.8,East,20.7,35.7,0.03,Snow,Light Snow,80,2013-02-08 18:52:00
1:59 PM,35.6,32.0,87,30.03,2.0,East,23.0,35.7,0.00,Snow,Light Snow,80,2013-02-08 18:59:00
2:07 PM,35.6,32.0,87,30.02,1.5,East,24.2,34.5,0.01,Snow,Light Snow,80,2013-02-08 19:07:00
2:20 PM,35.6,32.0,87,30.01,2.5,East,21.9,35.7,0.02,Snow,Light Snow,80,2013-02-08 19:20:00
2:32 PM,35.6,32.0,87,30.00,3.0,East,23.0,35.7,0.02,Snow,Light Snow,80,2013-02-08 19:32:00
2:52 PM,35.1,33.1,92,29.99,5.0,ENE,23.0,40.3,0.03,Rain,Light Rain,70,2013-02-08 19:52:00
3:52 PM,35.1,32.0,89,29.89,2.5,ENE,28.8,39.1,0.04,Snow,Light Snow,70,2013-02-08 20:52:00
4:15 PM,35.6,32.0,87,29.87,1.5,ENE,23.0,40.3,0.03,Snow,Light Snow,70,2013-02-08 21:15:00
4:52 PM,34.0,32.0,92,29.82,1.5,ENE,33.4,42.6,0.09,Snow,Light Snow,60,2013-02-08 21:52:00
5:20 PM,33.8,33.8,100,29.79,1.2,ENE,27.6,40.3,0.04,Snow,Light Snow,60,2013-02-08 22:20:00
5:52 PM,33.1,33.1,100,29.76,0.8,ENE,32.2,42.6,0.09,Snow,Light Snow,60,2013-02-08 22:52:00
6:21 PM,33.8,33.8,100,29.70,1.0,NE,33.4,44.9,0.04,Snow,Light Snow,50,2013-02-08 23:21:00
6:52 PM,33.1,33.1,100,29.65,1.0,NE,33.4,47.2,0.10,Snow,Light Snow,50,2013-02-08 23:52:00
7:03 PM,33.8,30.2,87,29.63,1.2,NE,31.1,54.1,0.02,,Mist,50,2013-02-09 00:03:00
7:33 PM,33.8,33.8,100,29.58,1.2,NE,29.9,47.2,0.07,Snow,Light Snow,50,2013-02-09 00:33:00
7:40 PM,33.8,33.8,100,29.57,1.2,NE,32.2,54.1,0.08,Snow,Light Snow,50,2013-02-09 00:40:00
7:52 PM,34.0,33.1,96,29.56,1.8,NE,29.9,48.3,0.09,Snow,Light Snow,50,2013-02-09 00:52:00
8:35 PM,33.8,-9999,N/A,29.51,2.0,NE,32.2,50.6,0.08,Snow,Light Snow,50,2013-02-09 01:35:00
8:41 PM,33.8,-9999,N/A,29.51,1.8,NE,31.1,55.2,0.09,Snow,Light Snow,50,2013-02-09 01:41:00
8:52 PM,33.1,-9999,N/A,29.49,2.0,NE,33.4,63.3,0.10,Rain,Light Rain,50,2013-02-09 01:52:00
8:57 PM,33.8,-9999,N/A,29.48,1.8,NE,33.4,50.6,0.00,Snow,Light Snow,50,2013-02-09 01:57:00
9:05 PM,33.8,-9999,N/A,29.47,1.2,NE,36.8,56.4,0.02,Snow,Light Snow,50,2013-02-09 02:05:00
9:17 PM,33.8,-9999,N/A,29.45,1.5,NE,36.8,59.8,0.04,Snow,Light Snow,50,2013-02-09 02:17:00
9:52 PM,33.1,-9999,N/A,29.42,1.2,NE,38.0,61.0,0.11,Snow,Light Snow,50,2013-02-09 02:52:00
10:46 PM,33.8,-9999,N/A,29.33,-9999.0,NE,33.4,51.8,0.08,Rain,Rain,40,2013-02-09 03:46:00
10:52 PM,33.1,-9999,N/A,29.33,-9999.0,NE,31.1,51.8,0.10,Rain,Heavy Rain,40,2013-02-09 03:52:00
11:01 PM,33.8,-9999,N/A,29.31,1.2,NE,31.1,59.8,0.03,Rain,Heavy Rain,40,2013-02-09 04:01:00
11:30 PM,32.0,-9999,N/A,29.28,1.0,NE,29.9,66.7,0.08,,Mist,40,2013-02-09 04:30:00
11:52 PM,33.1,-9999,N/A,29.30,1.2,NE,32.2,55.2,0.13,Rain,Rain,40,2013-02-09 04:52:00